Theta_e
278 278 278 277 277 277 274 274 272 274 274 278 281 282 284 287 288 289 289 289 291 291 295 301 303 307 307 311 316 315 315 314 313 312 312 313 313 314 313 314 316 316 316 315
274 276 276 276 278 278 278 277 275 276 276 282 286 289 288 289 290 291 291 290 292 291 294 300 303 306 307 310 315 314 314 312 311 311 312 312 312 312 314 315 316 316 316 316
270 274 275 272 276 277 277 278 277 275 281 284 286 287 289 289 290 291 292 292 292 292 294 300 305 307 307 309 315 313 313 311 311 311 311 311 312 313 312 312 313 313 314 314
271 273 267 276 280 280 278 279 280 280 282 287 287 289 291 292 290 292 294 293 294 294 297 304 305 306 308 309 314 312 311 310 310 311 311 311 311 311 311 311 311 311 311 312
270 270 273 276 280 279 279 279 284 284 286 286 288 289 289 292 293 293 296 294 295 298 304 305 306 307 308 308 312 311 310 309 310 310 310 310 309 309 310 309 309 308 308 308
268 267 266 275 281 286 285 275 286 287 285 286 287 281 286 292 293 293 295 300 301 303 304 304 304 307 308 307 310 309 310 310 311 310 310 308 308 308 307 306 304 305 304 304
270 267 272 278 282 285 274 276 285 286 286 287 284 287 290 293 294 295 293 299 301 300 299 300 302 306 305 307 308 311 310 310 310 309 308 308 307 306 304 303 302 301 301 301
267 266 268 281 283 278 282 285 285 286 288 287 288 288 289 291 293 292 291 293 299 298 297 298 300 303 302 305 311 310 309 309 308 308 307 307 305 304 303 301 300 299 299 299
272 273 279 283 283 286 286 285 285 287 288 287 287 288 288 290 290 290 291 293 297 297 296 297 299 299 301 306 309 309 308 307 307 307 307 306 304 302 302 301 300 299 299 299
276 277 278 281 284 285 286 286 287 287 287 287 287 288 288 288 289 290 291 292 297 296 295 296 298 300 305 309 309 308 306 306 306 305 305 305 305 304 302 301 300 299 298 298
275 277 279 281 282 284 285 287 286 287 288 289 288 289 287 288 289 290 291 294 295 295 295 296 306 309 310 309 308 307 306 305 304 305 303 303 304 304 303 302 301 299 299 299
274 278 278 279 284 286 285 285 286 286 288 291 290 289 287 288 289 291 291 293 294 294 296 299 301 307 307 308 308 306 304 304 303 303 302 301 300 300 304 303 302 301 300 299
278 280 281 283 284 285 285 286 287 290 290 289 288 287 287 288 289 292 291 291 293 294 294 300 300 305 307 308 308 306 304 303 303 302 301 300 299 298 296 299 301 301 301 301
281 281 280 282 282 285 286 287 288 290 291 290 289 291 291 290 291 292 292 292 293 294 294 301 301 305 307 308 307 306 304 304 302 302 301 300 299 299 299 298 296 297 301 301
280 282 282 283 283 284 285 285 286 288 288 289 290 291 292 292 292 292 294 294 294 293 294 295 302 304 307 307 306 305 304 303 303 302 301 300 299 299 299 298 296 296 298 300
281 281 281 281 281 282 282 284 286 287 288 288 288 289 291 292 293 293 294 294 292 291 293 295 298 305 307 307 306 305 304 303 303 301 299 299 298 298 297 296 296 296 296 296
280 279 280 280 281 282 282 285 287 287 288 288 288 289 291 291 292 292 293 294 294 294 294 294 297 306 307 306 305 303 303 302 302 301 299 298 298 297 297 297 296 295 295 297
283 283 283 283 283 282 282 284 286 287 287 288 288 289 290 291 291 291 293 293 293 294 295 296 297 304 306 305 304 302 301 301 300 299 299 298 297 297 296 296 295 294 294 297
282 282 282 282 283 283 283 284 285 286 287 288 288 289 290 291 292 292 293 292 292 292 294 296 297 297 306 305 303 302 301 299 298 298 298 298 296 296 295 295 294 294 296 296
282 282 283 283 283 283 283 284 285 286 287 289 289 289 290 291 291 291 292 291 292 293 295 296 296 296 303 305 303 302 301 299 297 297 297 296 295 295 295 294 294 294 296 294
282 282 282 282 283 283 284 285 286 287 288 289 288 289 289 290 291 291 290 290 293 295 296 296 297 296 297 305 304 302 301 299 297 297 296 295 294 294 294 293 293 294 294 293
281 281 282 282 283 284 285 286 286 287 287 287 288 288 289 289 290 291 292 292 294 296 296 296 296 298 299 303 304 303 301 300 298 297 296 295 295 294 293 293 293 293 294 293
283 284 284 284 284 284 285 285 285 286 286 287 287 288 288 290 291 290 290 294 295 295 296 296 298 300 301 304 304 304 302 300 299 298 296 296 295 295 294 293 293 294 293 293
280 282 282 284 284 284 284 285 286 286 287 287 288 288 289 289 291 293 294 295 296 296 296 297 298 300 300 300 303 303 303 302 300 299 297 296 296 295 294 294 293 294 294 293
280 280 281 282 283 283 284 285 285 286 286 287 288 289 290 291 292 292 293 293 295 296 296 296 298 298 298 298 301 303 304 303 302 300 298 297 296 295 295 294 294 294 294 293
279 280 281 282 283 284 285 285 285 286 286 287 288 289 290 291 292 292 292 293 293 294 295 295 295 296 296 297 299 302 303 304 302 301 299 298 297 296 295 294 294 295 294 294
280 284 281 281 283 284 285 285 285 285 287 288 288 290 290 290 291 292 293 292 292 292 293 294 294 295 296 297 298 301 303 304 302 302 301 300 298 297 296 295 295 295 294 294
Wind_Speed
3 2 2 3 5 8 6 5 6 5 5 16 18 18 18 19 20 21 21 18 15 13 11 11 9 8 10 11 6 5 6 7 7 9 10 8 10 8 7 7 7 7 7 6
3 2 2 8 10 10 11 9 11 15 18 11 11 16 17 17 18 20 19 18 15 14 13 12 10 9 8 10 8 9 10 9 7 8 10 9 7 8 9 8 7 7 7 7
3 2 4 7 8 14 5 5 5 5 8 10 17 17 18 17 16 20 18 17 15 13 11 11 9 8 10 10 5 9 11 10 9 9 8 8 9 9 8 7 6 6 7 7
1 1 3 1 1 5 6 5 10 7 9 10 14 15 15 12 15 19 16 13 12 11 10 7 8 9 9 8 5 8 11 11 10 10 9 8 8 7 7 7 8 9 10 10
3 3 5 1 1 3 4 4 3 5 8 12 12 12 8 13 11 20 20 9 7 8 7 8 11 9 9 6 6 9 10 11 10 10 9 9 8 8 8 9 9 10 11 12
2 3 4 3 3 2 3 5 6 6 7 10 10 10 8 15 18 8 7 13 7 8 9 11 10 8 8 7 8 10 11 12 11 10 11 9 9 9 8 10 10 11 12 11
2 2 7 8 6 3 3 4 4 3 7 8 7 6 14 17 20 15 10 8 4 7 11 11 12 10 9 9 10 11 12 12 12 11 11 10 10 10 11 12 13 12 12 9
3 2 6 7 2 6 4 2 2 5 4 8 10 12 10 12 11 11 10 8 8 9 11 14 12 9 9 10 9 13 13 13 12 12 9 9 13 10 12 14 14 12 13 10
9 7 3 5 4 4 3 3 3 4 8 6 9 8 11 10 8 9 9 7 7 10 16 17 12 11 12 10 13 15 15 13 12 12 11 12 13 12 11 12 11 11 10 10
3 3 8 7 5 5 4 5 3 5 7 5 6 10 9 8 7 7 7 6 8 10 18 21 17 15 13 13 14 16 15 14 13 12 11 11 9 10 10 10 10 10 10 10
4 7 5 8 7 7 4 4 4 5 4 6 4 10 6 7 8 6 5 4 8 10 16 20 14 7 17 18 15 16 15 13 12 11 11 10 8 8 8 7 9 12 10 10
6 6 3 4 2 1 4 4 5 3 6 7 4 6 6 8 6 7 5 6 9 11 15 19 20 3 13 15 17 16 15 11 11 10 10 10 10 10 14 15 17 16 18 13
4 4 5 3 3 3 2 2 2 4 4 6 6 3 4 5 5 8 6 5 8 12 11 15 20 5 6 13 16 16 14 13 11 12 10 11 10 11 11 13 18 18 20 22
3 5 2 5 5 4 1 4 4 3 3 3 4 4 5 4 6 8 9 8 7 10 10 12 17 6 5 13 15 15 15 19 11 10 10 10 10 10 10 11 11 10 15 17
9 9 4 2 2 4 2 4 4 2 4 4 4 4 5 8 8 8 8 8 7 8 10 12 12 10 6 9 14 14 13 10 10 10 10 12 10 10 10 11 12 11 11 13
8 8 3 5 6 7 5 5 5 2 3 3 4 5 6 5 5 6 8 9 7 6 8 11 12 12 6 6 12 11 11 19 14 10 11 11 10 11 11 12 12 11 10 11
5 4 4 5 7 5 6 4 5 3 2 3 4 4 5 5 5 7 9 9 7 5 6 9 11 9 7 7 8 8 9 10 17 10 10 9 10 11 10 11 10 10 9 10
8 7 9 6 5 5 6 6 5 3 3 1 2 3 5 4 5 6 8 8 7 5 9 9 10 9 8 7 7 7 8 9 9 10 9 9 9 9 10 10 10 10 9 9
9 10 8 7 6 6 5 3 5 4 3 2 1 3 4 3 3 5 7 8 8 7 10 10 14 11 5 5 6 6 8 9 9 9 9 14 9 9 9 9 10 10 10 9
7 5 6 6 6 6 6 5 5 5 4 3 2 1 4 3 4 5 6 6 5 4 8 9 8 7 6 4 6 5 7 9 10 9 9 8 8 9 8 11 11 10 10 8
6 6 7 7 6 5 5 5 5 5 3 3 2 2 3 4 2 3 4 4 5 6 7 9 6 5 5 3 4 5 6 7 8 9 9 9 9 9 9 9 9 9 9 8
4 6 7 6 5 5 5 4 3 2 1 2 3 3 2 3 3 2 2 4 4 8 4 4 5 9 7 3 2 4 6 6 7 8 8 8 9 9 9 9 9 9 8 8
5 5 5 6 6 5 4 3 2 2 3 5 4 4 3 2 1 1 3 3 3 6 4 3 8 10 13 1 1 3 6 7 7 7 8 8 8 8 9 9 9 9 8 9
4 4 4 3 4 3 1 1 2 4 4 5 5 4 3 2 2 3 3 6 8 6 4 4 7 10 9 3 1 1 3 5 6 6 7 10 7 8 7 8 9 8 8 9
3 2 2 3 3 3 4 2 2 4 4 4 5 4 4 3 4 2 2 3 7 6 3 6 8 10 3 3 1 3 3 4 6 7 7 8 8 8 8 8 9 9 8 8
2 3 3 5 4 3 3 2 3 3 3 3 2 3 2 2 2 3 2 3 2 6 3 3 3 3 4 3 3 4 4 3 4 6 7 7 8 8 8 9 9 9 9 8
3 3 1 2 3 4 3 4 3 4 4 3 3 3 2 1 3 3 5 3 3 3 4 3 3 4 4 4 3 4 4 5 7 7 6 6 7 8 8 9 9 8 8 8
Wind_Direction
246 129 156 219 199 180 191 179 218 252 261 283 293 296 299 304 301 296 290 286 281 282 281 278 287 294 309 315 182 170 186 147 139 122 116 117 121 123 120 116 126 138 133 127
307 7 233 252 242 230 231 227 244 265 278 259 295 310 311 303 301 293 279 270 276 277 280 275 282 297 296 310 218 157 174 140 125 115 120 123 123 123 121 118 131 136 140 131
257 14 323 268 239 200 190 205 190 244 302 321 318 313 311 311 310 306 290 268 279 279 286 277 286 294 288 295 255 178 157 145 135 125 127 132 128 129 116 121 121 117 113 111
193 345 231 303 225 168 204 227 219 268 287 283 295 304 313 315 319 326 315 274 270 275 283 282 284 288 275 284 242 180 144 143 139 138 137 133 121 116 115 112 113 106 96 100
169 210 300 350 187 151 189 275 240 224 276 298 304 307 327 337 354 0 352 322 282 275 294 308 302 277 262 269 259 164 158 147 147 142 137 124 122 119 114 110 102 94 95 99
143 137 224 232 217 99 94 280 209 223 285 313 322 344 330 326 327 347 6 332 335 323 336 328 335 294 259 258 255 176 165 153 142 140 129 123 121 116 109 105 101 96 93 97
170 214 282 244 233 100 209 234 244 286 299 297 319 283 296 308 303 320 325 295 323 348 355 335 313 296 284 254 236 171 153 137 134 129 122 125 119 118 115 108 100 96 97 95
104 118 274 182 99 186 214 254 249 299 273 301 304 308 315 302 291 313 319 327 5 338 342 324 307 284 293 265 187 149 142 129 131 125 127 127 122 119 116 114 107 111 107 103
184 208 257 221 210 188 156 238 283 283 291 298 301 316 327 316 318 327 327 345 357 337 325 314 303 281 271 248 152 145 133 131 131 126 130 131 127 125 121 116 119 122 114 114
148 234 228 248 258 248 231 218 261 265 273 283 301 319 328 325 331 336 354 7 345 318 327 311 301 270 230 163 150 139 129 130 129 128 129 129 128 128 128 130 126 123 121 119
263 273 278 266 242 248 221 263 270 287 261 291 312 317 315 316 319 324 356 26 331 316 327 321 336 147 151 147 144 133 129 129 129 129 125 121 113 130 128 127 139 136 133 132
210 209 164 224 240 55 183 258 288 275 308 322 302 305 313 311 314 330 347 13 337 325 330 344 351 48 128 137 138 133 126 130 133 129 125 118 110 91 72 111 118 121 126 126
174 178 183 256 262 222 228 281 298 301 302 327 324 334 318 304 331 346 3 358 342 332 331 357 330 41 108 136 132 129 129 133 130 130 127 123 119 115 112 86 101 118 120 124
189 132 208 224 237 168 206 290 311 295 316 327 341 6 352 346 347 11 0 347 331 331 346 355 342 61 74 125 125 127 128 135 133 133 128 126 124 126 129 125 120 120 120 127
193 215 182 81 325 273 283 281 257 300 323 345 348 355 352 351 354 350 345 356 358 342 349 352 349 9 66 122 124 126 129 130 129 127 128 126 128 126 123 119 122 128 128 126
183 206 210 239 258 267 265 264 233 251 303 327 343 349 337 335 341 346 354 4 12 359 346 353 337 3 71 102 124 126 127 131 130 128 130 128 130 127 128 124 130 138 140 142
123 150 174 233 220 240 223 216 227 202 272 307 319 329 339 344 359 3 357 360 347 9 360 357 355 16 49 77 106 118 124 128 132 126 129 133 134 138 136 130 137 142 145 155
197 201 188 184 198 229 238 220 228 213 227 220 330 351 342 356 355 348 344 342 351 10 18 1 354 0 32 68 101 119 123 127 130 131 131 132 135 137 135 133 139 139 140 153
197 209 205 209 208 219 228 206 221 250 243 167 27 355 315 319 353 343 342 346 356 6 358 354 0 8 42 73 105 116 124 127 126 126 128 131 134 135 137 138 137 140 144 147
197 191 194 221 211 203 228 229 230 247 220 158 154 27 318 328 7 354 345 347 337 339 337 345 5 360 353 86 101 115 127 131 131 131 133 133 138 140 140 142 140 146 150 153
194 188 205 210 210 210 213 219 188 198 192 169 216 260 284 315 4 352 332 347 332 346 3 357 10 356 347 34 90 114 125 132 136 137 142 141 138 139 143 147 147 153 153 157
174 172 187 181 173 172 177 169 182 164 210 256 249 264 278 301 328 345 290 278 309 338 1 3 3 345 340 7 100 127 128 134 135 137 143 147 148 148 151 153 153 157 159 161
134 142 137 152 151 152 137 149 183 206 232 251 251 239 229 233 242 311 328 314 333 323 347 6 352 353 347 94 221 158 138 142 147 149 152 153 155 156 156 159 157 160 162 166
97 118 135 131 116 116 188 254 223 246 242 255 258 237 213 223 262 239 268 306 324 338 328 340 345 345 337 352 211 215 133 140 151 152 153 155 155 154 155 157 160 164 165 168
128 132 136 151 178 226 238 228 229 250 243 242 253 253 223 214 208 261 308 302 315 318 312 325 333 333 316 314 274 215 189 165 156 157 162 158 158 162 160 163 165 168 167 174
211 228 225 211 220 218 220 192 230 251 239 246 260 253 217 214 227 247 267 287 303 302 294 304 302 307 286 262 247 204 207 169 157 162 167 166 161 164 167 165 165 173 172 174
271 263 270 262 236 226 215 212 218 242 231 218 227 243 228 196 267 270 261 285 305 277 273 277 277 286 276 252 240 235 192 190 179 177 176 170 168 166 168 170 171 173 171 170